Powrót do katalogu

KINEIS-5C

AktywnyŁącznośćSSO
NORAD 62081·PAYLOAD·🇫🇷 France

Wystrzelony Nov 25, 2024 z Rocket Lab Launch Complex 1

Loading…

Następne Przeloty (najbliższe 24 godziny)

TLE

ŚwieżeSource: Space-Track

Epoka: Sep 14, 2026, 15:11 UTC

1 62081U 24219A   26257.63291149  .00000473  00000-0  82405-4 0  9999
2 62081  97.9147  54.0578 0004154  15.8005 344.3332 14.72315336 96910

Śledź KINEIS-5C w czasie rzeczywistym z AllMySat

Download on the App Store